Location: Agadir Irigdalene
(31.2522°N, 8.7797°W)
Time: 06:11:15
(UTC+00:00)

USA 238 - Pass Details

Date: 01 December 2020
Orbit: 997 x 1215 km, 63.4° (Epoch: 11 January)

Event Time Altitude Azimuth Distance (km) Brightness Sun altitude
Rises 18:45:30 0° 213° (SSW) 3,700 7.3 -15.5°
Reaches altitude 10° 18:48:03 10° 215° (SW) 2,759 6.6 -16.0°
Maximum altitude 18:54:30 74° 300° (WNW) 1,054 3.7 -17.3°
Enters shadow 19:00:39 13° 25° (NNE) 2,656 5.4 -18.6°
